{"data":{"norad_id":68325,"intl_designator":"2026-059E","name":"STARLINK-36309","alt_names":[],"object_type":"PAYLOAD","status":"ACTIVE","operator":null,"country":"US","launch_date":"2026-03-22","launch_site_code":"AFETR","launch_vehicle":null,"mission":null,"orbit_class":"UNKNOWN","rcs_meters":null,"size_class":null,"mass_kg":null,"dimensions":null,"purposes":["comms"],"wikipedia_slug":null,"has_3d_model":false,"image_url":null,"decayed_at":null,"tle_current":{"epoch":"2026-05-24T22:49:27.632064Z","epoch_age_seconds":72654,"freshness":"FRESH","line1":"1 68325U 26059E   26144.95101426  .00028804  00000+0  83306-3 0  9995","line2":"2 68325  53.1616 350.3253 0000482 101.7212 258.3845 15.35416443  9906","mean_motion":15.35416443,"eccentricity":4.82e-5,"inclination_deg":53.1616,"raan_deg":350.3253,"arg_perigee_deg":101.7212,"mean_anomaly_deg":258.3845,"bstar":0.00083306,"rev_number":990,"period_min":93.785631029614,"perigee_km":459.35424119062,"apogee_km":460.01340711807,"semimajor_km":6837.8208241543,"source":"CELESTRAK","updated_at":"2026-05-25T13:38:21.921994Z"}}}